Home   Weather   Molepolole   Past weeks
Flag for Botswana

Past Weather in Molepolole, Botswana — Yesterday and Last 2 Weeks

Now
59 °F

Clear.


Feels Like: 59 °F
Forecast: 83 / 49 °F
Wind: 5 mph from West

Location: Seretse Khama International Airport

Current Time: Sep 23, 2019 at 4:55:18 am

Latest Report: Sep 23, 2019 at 4:00 am


Visibility: 10 mi

Pressure: 30.07 "Hg (26.25 "Hg at 1145m altitude)

Humidity: 29%

Dew Point: 27 °F

Location of MolepololeLocation

Past Weather in Molepolole — Graph

°F

Molepolole Temperature Yesterday

Maximum temperature yesterday: 93 °F (at 3:00 pm)
Minimum temperature yesterday: 59 °F (at 6:00 am)
Average temperature yesterday: 77 °F

High & Low Weather Summary for the Past Weeks

 TemperatureHumidityPressure
High93 °F (Sep 14, 3:00 pm)82% (Sep 10, 7:00 am)30.57 "Hg (Sep 10, 7:00 am)
Low45 °F (Sep 8, 6:00 am)3% (Sep 12, 3:00 pm)29.92 "Hg (Sep 22, 4:00 pm)
Average73 °F23%30.15 "Hg
* Reported Sep 8 3:00 am — Sep 23 3:00 am, Molepolole. Weather by CustomWeather, © 2019

Note: Actual official high and low records may vary slightly from our data, if they occured in-between our weather recording intervals... More about our weather records

Advertising

Molepolole Weather History for the Previous 24 Hours

Scroll right to see more
 ConditionsComfort  
Time TempWeatherWind HumidityBarometerVisibility
3:00 am
Mon, Sep 23
61 °FClear.7 mph27%30.07 "Hg10 mi
2:00 am64 °FClear.3 mph24%30.07 "Hg10 mi
1:00 am66 °FClear.6 mph21%30.07 "Hg10 mi
12:00 am70 °FClear.14 mph18%30.07 "Hg10 mi
11:00 pm
Sun, Sep 22
73 °FClear.16 mph17%30.07 "Hg10 mi
10:00 pm77 °FClear.20 mph18%30.04 "Hg10 mi
9:00 pm79 °FClear.9 mph11%30.01 "Hg10 mi
8:00 pm79 °FClear.6 mph10%29.98 "Hg10 mi
7:00 pm84 °FClear.6 mph8%29.95 "Hg10 mi
6:00 pm90 °FSunny.8 mph7%29.92 "Hg10 mi
5:00 pm93 °FSunny.13 mph7%29.92 "Hg10 mi
4:00 pm93 °FPassing clouds.6 mph9%29.92 "HgN/A
3:00 pm93 °FPassing clouds.7 mph9%29.95 "HgN/A
2:00 pm91 °FSunny.5 mph10%29.98 "Hg10 mi
1:00 pm90 °FSunny.5 mph12%30.01 "Hg10 mi
12:00 pm86 °FSunny.5 mph14%30.04 "Hg10 mi
11:00 am82 °FPassing clouds.10 mph19%30.07 "HgN/A
10:00 am79 °FPassing clouds.6 mph23%30.07 "HgN/A
9:00 am75 °FSunny.12 mph25%30.07 "Hg10 mi
8:00 am68 °FSunny.12 mph30%30.07 "Hg10 mi
7:00 am63 °FSunny.8 mph34%30.04 "Hg10 mi
6:00 am59 °FClear.9 mph36%30.04 "Hg10 mi
5:00 am61 °FClear.8 mph34%30.04 "Hg10 mi
4:00 am63 °FClear.8 mph30%30.01 "Hg10 mi
Weather by CustomWeather, © 2019

See weather overview